Home   Weather   Eindhoven   Past weeks

Flag for Netherlands Past Weather in Eindhoven, Netherlands — Yesterday and Last 2 Weeks

Now
52 °F

Passing clouds.


Feels Like: 52 °F
Forecast: 53 / 75 °F
Wind: 1 mph from Northeast

Location: Eindhoven Airport

Current Time: Aug 31, 2016 at 4:26:51 AM

Latest Report: Aug 31, 2016 at 3:55 AM


Visibility: N/A

Pressure: 30.15 "Hg

Humidity: 94%

Dew Point: 50 °F

Location of EindhovenLocation

Past Weather in Eindhoven — Graph

°F

Eindhoven Temperature Yesterday

Maximum temperature yesterday: 75 °F (at 3:25 PM)
Minimum temperature yesterday: 46 °F (at 6:25 AM)
Average temperature yesterday: 62 °F

High & Low Weather Summary for the Past Weeks

 TemperatureHumidityPressure
High91 °F (Aug 25, 4:25 PM)100% (Aug 19, 2:25 AM)30.33 "Hg (Aug 19, 2:25 AM)
Low46 °F (Aug 30, 6:25 AM)34% (Aug 18, 6:55 PM)29.77 "Hg (Aug 18, 3:55 PM)
Average68 °F72%30.02 "Hg
* Reported Aug 16 2:25 AM — Aug 31 2:55 AM, Eindhoven, Weather by CustomWeather, © 2016

Note: Actual official high and low records may vary slightly from our data, if they occured in-between our weather recording intervals... More about our weather records

Advertising

Eindhoven Weather History for the Previous 24 Hours

Scroll right to see more
 ConditionsComfort  
Time TempWeatherWind HumidityBarometerVisibility
2:55 AM
Wed, Aug 31
54 °FCool.2 mph88%30.15 "HgN/A
2:25 AM54 °FCool.2 mph88%30.18 "HgN/A
1:55 AM57 °FCool.2 mph77%30.18 "HgN/A
1:25 AM57 °FCool.2 mph77%30.18 "HgN/A
12:55 AM59 °FPassing clouds.3 mph72%30.21 "HgN/A
12:25 AM55 °FCool.1 mph82%30.21 "HgN/A
11:55 PM
Tue, Aug 30
59 °FCool.1 mph77%30.21 "HgN/A
11:25 PM59 °FCool.3 mph72%30.21 "HgN/A
10:55 PM63 °FMild.5 mph64%30.21 "HgN/A
10:25 PM64 °FPassing clouds.5 mph60%30.21 "HgN/A
9:55 PM66 °FMild.6 mph56%30.21 "HgN/A
9:25 PM68 °FMild.7 mph53%30.21 "HgN/A
9:01 PM64 °FHaze.6 mph64%30.21 "Hg3 mi
8:55 PM66 °FHaze.6 mph60%30.21 "Hg1 mi
8:25 PM70 °FPassing clouds.6 mph50%30.21 "HgN/A
7:55 PM72 °FMild.6 mph47%30.21 "HgN/A
7:25 PM73 °FPassing clouds.7 mph41%30.21 "HgN/A
6:55 PM73 °FMild.8 mph44%30.21 "HgN/A
6:25 PM73 °FMild.6 mph47%30.21 "HgN/A
5:55 PM75 °FPassing clouds.7 mph41%30.24 "HgN/A
5:25 PM75 °FPassing clouds.7 mph41%30.24 "HgN/A
4:55 PM75 °FMild.6 mph41%30.24 "HgN/A
4:25 PM75 °FMild.6 mph41%30.24 "HgN/A
3:55 PM75 °FMild.3 mph41%30.24 "HgN/A
3:25 PM75 °FMild.6 mph41%30.24 "HgN/A
2:55 PM73 °FMild.5 mph41%30.27 "HgN/A
2:25 PM73 °FMild.3 mph44%30.27 "HgN/A
1:55 PM72 °FMild.5 mph47%30.27 "HgN/A
1:25 PM72 °FMild.3 mph50%30.30 "HgN/A
12:55 PM72 °FPassing clouds.2 mph53%30.30 "HgN/A
12:25 PM70 °FMild.5 mph53%30.30 "HgN/A
11:55 AM70 °FMild.2 mph57%30.30 "HgN/A
11:25 AM68 °FMild.3 mph60%30.30 "HgN/A
10:55 AM68 °FMild.3 mph60%30.30 "HgN/A
10:25 AM66 °FMild.2 mph68%30.30 "HgN/A
9:55 AM64 °FMild.1 mph78%30.30 "HgN/A
9:25 AM61 °FCool.No wind83%30.30 "HgN/A
8:55 AM57 °FFog.1 mph88%30.30 "Hg6 mi
8:25 AM54 °FFog.1 mph94%30.30 "Hg4 mi
7:55 AM50 °FCool.1 mph100%30.27 "HgN/A
7:25 AM46 °FCool.No wind100%30.27 "HgN/A
6:55 AM48 °FCool.No wind100%30.27 "HgN/A
6:25 AM46 °FPassing clouds.No wind100%30.27 "HgN/A
5:55 AM48 °FCool.No wind100%30.27 "HgN/A
5:25 AM48 °FCool.No wind94%30.27 "HgN/A
4:55 AM48 °FCool.1 mph94%30.27 "HgN/A
4:25 AM50 °FCool.1 mph100%30.27 "HgN/A
Weather by CustomWeather, © 2016

See weather overviewHow to use our weather pages